Regional Weather Roundup
Issued by NWS Cleveland, OH

Home | Current Version | Previous Version | Graphics & Text | Print | Product List | Glossary On
Versions: 1 2 3 4 5 6 7 8 9 10 11 12 13 14 15 16 17 18 19 20 21 22 23 24 25 26 27 28 29 30 31 32 33 34 35 36 37 38 39 40 41 42 43 44 45 46 47 48 49 50
000
ASUS41 KCLE 162012
RWRCLE
OHIO REGIONAL WEATHER ROUNDUP
NATIONAL WEATHER SERVICE WILMINGTON, OH
400 PM EDT WED AUG 16 2017

NOTE: "FAIR" INDICATES FEW OR NO CLOUDS BELOW 12,000 FEET WITH NO
SIGNIFICANT WEATHER AND/OR OBSTRUCTIONS TO VISIBILITY.

OHZ001>008-015>018-024>027-034-035-043-044-162100-
   NORTHWEST OHIO

CITY           SKY/WX    TMP DP  RH WIND       PRES   REMARKS
DEFIANCE       PTSUNNY   86  63  45 NE7       29.99F
FINDLAY        FAIR      88  64  44 VRB3      30.00F
TOLEDO EXPRESS FAIR      87  63  44 VRB5      30.00F
TOLEDO EXEC    FAIR      84  66  54 E12       30.02F
LIMA           PTSUNNY   84  68  58 E3        30.00F
$$

OHZ009>014-019>023-028>033-038-089-162100-
   NORTHEAST OHIO

CITY           SKY/WX    TMP DP  RH WIND       PRES   REMARKS
CLE-HOPKINS    FAIR      85  55  35 N14       30.06F
CLE-LAKEFRONT  FAIR      79  60  52 NE14      30.04F
CUY CO. ARPT   MOSUNNY   82  59  44 N9        30.07F
LORAIN-ELYRIA  FAIR      83  57  41 NE8       30.04F
ASHTABULA      FAIR      79  56  45 NE6       30.08F
AKRON-CANTON   PTSUNNY   87  59  38 VRB6      30.05F
WOOSTER        FAIR      86  63  45 VRB5      30.05F
MANSFIELD      FAIR      86  66  51 VRB3      30.04F
YOUNGSTOWN     FAIR      82  57  42 N8        30.07F
$$

OHZ042-051>053-060>062-070>072-077>081-162100-
  SOUTHWEST OHIO

CITY           SKY/WX    TMP DP  RH WIND       PRES   REMARKS
CINC-COVINGTON FAIR      90  71  53 VRB5      29.99F HX  96
CINC-LUNKEN    PTSUNNY   88  72  58 SE6       29.98F HX  94
HAMILTON       FAIR      92  67  43 W8        29.99F HX  95
DAYTON         FAIR      87  64  46 CALM      30.01F
WRIGHT-PAT AFB MOSUNNY   88  64  45 SW5       29.99F
DAYTON GENERAL FAIR      88  65  46 VRB6      30.00F HX  90
WILMINGTON     FAIR      87  69  54 S6        30.01F HX  91
$$

OHZ036-037-039>041-045>050-054>059-063>069-073>076-082>088-162100-
  CENTRAL AND SOUTHEAST OHIO

CITY           SKY/WX    TMP DP  RH WIND       PRES   REMARKS
COLUMBUS       FAIR      86  67  52 VRB3      30.00F
OSU AIRPORT    FAIR      87  67  51 W6        30.00F HX  90
BOLTON FIELD   MOSUNNY   88  68  51 SW5       30.02F HX  91
RICKENBACK AFB FAIR      88  67  50 W6        30.00F HX  91
NEWARK         PTSUNNY   83  71  67 N3        30.02F
MARION         CLOUDY    85  66  53 CALM      30.02F
LANCASTER      FAIR      87  67  51 SW6       30.01F HX  90
ZANESVILLE     PTSUNNY   87  67  51 VRB5      30.02F HX  90
NEW PHILLY     FAIR      85  66  53 E3        30.04F
$$



USA.gov is the U.S. government's official web portal to all federal, state and local government web resources and services.